Location: Berg
(47.2344°N, 9.5296°E)
Time: 21:13:41
(UTC+00:00)

N. Korean satellite - Pass Details

Date: 18 September 2021
Orbit: 450 x 495 km, 97.3° (Epoch: 25 October)

Event Time Altitude Azimuth Distance (km) Brightness Sun altitude
Rises 03:39:56 0° 31° (NNE) 2,502 11.0 -14.7°
Reaches altitude 10° 03:42:46 10° 57° (ENE) 1,630 10.5 -14.2°
Maximum altitude 03:44:44 14° 91° (E) 1,386 10.0 -13.9°
Drops below altitude 10° 03:46:43 10° 126° (SE) 1,636 9.7 -13.6°
Sets 03:49:33 0° 151° (SSE) 2,519 10.3 -13.1°
